Location: *
(14.6440°N, 134.5660°E)
Time: 03:41:33
(UTC+00:00)

Daily predictions for brighter satellites

Satellite Brightness Start Highest point End
(mag) Time Altitude Azimuth Time Altitude Azimuth Time Altitude Azimuth
Cosmos 2026 Rocket 4.4 08:46:27 10° N 08:52:46 75° W 08:58:59 10° S
ASTRO E2 3.8 08:50:59 10° NW 08:54:24 26° NNE 08:57:49 10° E
CSL-04 Rocket 3.9 08:49:48 10° S 08:55:07 77° WSW 09:00:32 10° NNW
Delta 2 Rocket 4.5 08:48:53 10° WNW 08:55:33 79° SSW 09:03:38 10° ESE
ATLAS CENTAUR R/B 2.8 08:52:13 10° NW 08:56:19 48° WSW 09:00:40 10° S
Cosmos 1975 3.0 08:53:19 10° N 08:57:21 78° W 09:01:25 10° S
Cosmos 1271 Rocket 3.1 08:54:48 10° NNE 08:58:25 42° E 09:02:06 10° SSE
Meteor 1-12 Rocket 4.3 08:53:56 10° N 08:59:40 85° E 09:05:30 10° S
IRS-1A Rocket 4.4 08:54:50 10° SSE 09:00:25 56° ENE 09:05:52 10° N
ERS-2 3.4 08:57:59 10° SE 09:00:44 20° ENE 09:03:30 10° NNE
Cosmos 1697 Rocket 2.8 08:56:10 10° S 09:01:43 61° ESE 09:07:16 10° NNE
COSMO-SKYMED 1 3.0 08:59:07 10° N 09:03:25 69° WNW 09:07:43 10° SSW
Aureole 1 Rocket 4.5 08:57:39 10° N 09:04:39 70° ENE 09:13:02 10° SSE
SJ 16-02 1.8 09:01:48 10° SSW 09:06:08 66° WNW 09:10:28 10° N
Thor Agena Rocket 4.5 09:03:38 10° NE 09:08:07 29° E 09:12:37 10° SSE
Okean 2 4.2 09:04:57 10° SSE 09:08:36 31° E 09:12:15 10° NNE
METEOR-M 4.2 09:04:39 10° SSE 09:09:51 56° ENE 09:15:03 10° N
Ariane Rocket 3.8 09:05:33 10° S 09:10:31 57° WSW 09:15:29 10° NNW
Atlas Centaur 2 3.8 09:14:54 10° NNW 09:15:38 10° N 09:16:21 10° N
Meteor 1-23 Rocket 4.3 09:09:51 10° S 09:15:40 81° E 09:21:26 10° N
CZ-4 R/B 4.4 09:12:28 10° SSE 09:16:36 75° ENE 09:20:43 10° N
Shenzhou-11 Module 4.3 09:17:38 10° SSE 09:19:05 13° SE 09:20:09 11° ESE
SL-24 R/B - RUBIN 2 4.5 09:14:54 10° SSW 09:21:27 73° ESE 09:27:37 10° NNE
SEDSat Delta rocket 4.3 09:19:34 10° WNW 09:24:38 46° SW 09:29:04 10° SE
Cosmos 1184 Rocket 4.2 09:26:03 10° SE 09:28:29 20° E 09:28:29 20° E
Lacrosse 5 4.0 09:24:26 10° WNW 09:28:48 30° WSW 09:33:10 10° S
Delta 7925 Rocket 3.9 09:24:21 10° WNW 09:28:50 52° SSW 09:33:36 10° SE
Cosmos 1666 3.6 09:26:54 10° NNW 09:30:30 49° W 09:34:06 10° SSW
Cosmos 1607 4.0 09:24:16 10° NNW 09:30:44 88° WSW 09:37:03 10° SSE
USA 215 3.2 09:25:01 10° SE 09:31:33 78° NE 09:38:04 10° NNW
Cosmos 2227 Rocket 2.8 09:30:42 10° N 09:35:42 32° ENE 09:40:40 10° SE
Cosmos 1025 Rocket 2.9 09:31:33 10° S 09:35:53 83° E 09:40:12 10° N
ASC 2 Rocket 2.9 09:32:09 10° WSW 09:36:09 83° SSE 09:38:40 26° ENE
Cosmos 2219 3.6 09:31:45 10° NNW 09:37:19 68° WSW 09:42:54 10° S
NOSS 3-4 (A) 4.3 09:33:08 10° SW 09:39:07 47° WNW 09:45:06 10° N
NOSS 3-4 (C) 4.3 09:33:13 10° SW 09:39:13 48° WNW 09:45:12 10° N
Hubble Space Telescope 3.0 09:38:45 10° NNW 09:40:25 12° N 09:40:53 12° NNE
Cosmos 1980 Rocket 2.1 09:35:21 10° SSW 09:40:58 80° ESE 09:46:13 12° NNE
ATLAS 3B R/B 3.3 09:36:08 10° N 09:41:28 26° ENE 09:44:10 20° E
Centaur AC-64 3.6 09:42:23 10° SSW 09:43:46 14° SSE 09:43:58 14° SSE
H-2A R/B 4.2 09:42:21 10° SE 09:44:02 21° ESE 09:44:02 21° ESE
ALOS 2.2 09:41:12 10° SSE 09:45:52 87° ENE 09:50:31 10° N
Meteor 2-9 Rocket 4.1 09:40:34 10° N 09:45:59 83° W 09:51:18 10° S
Fermi 3.8 09:42:24 10° WNW 09:46:26 59° NNE 09:47:44 38° E
NOSS 2-2 (D) 3.2 09:45:41 10° SSW 09:49:49 85° ESE 09:51:27 34° NNE
Cosmos 2344 3.9 09:46:12 10° S 09:54:13 47° ESE 09:57:47 29° ENE
IUS-9 SRM-1 3.6 09:38:20 10° WNW 09:56:13 88° NNE 09:58:23 31° ESE
Cosmos 2297 Rocket 2.3 09:57:32 10° N 10:03:01 51° ENE 10:08:28 10° SSE
Milstar 3 Cent rocket 4.5 09:53:30 10° SSW 10:04:06 26° SSE 10:08:21 18° ESE
Mugunghwa Rocket 4.5 09:57:54 10° WNW 10:05:05 76° SSW 10:11:04 19° ESE
NOSS 2-2 (E) 4.3 10:02:42 10° SW 10:06:30 42° WNW 10:08:04 27° NNW
Nadezhda 2 Rocket 4.4 10:04:58 10° N 10:11:19 84° E 10:17:45 10° S
NOSS 2-2 (C) 4.3 10:08:22 10° SW 10:12:14 43° WNW 10:13:18 34° NNW
Cosmos 1892 Rocket 3.4 10:08:06 10° S 10:12:34 81° E 10:13:02 70° NNE
GPS 2-04 Rocket1 4.0 10:10:01 10° SSW 10:12:09 26° S 10:12:09 26° S
USA 234 3.6 10:15:01 40° E 10:16:08 43° SE 10:22:14 10° SSW
SL-16 R/B 2.5 10:11:46 10° S 10:16:40 45° ESE 10:16:40 45° ESE
Meteor 1-15 Rocket 4.4 10:12:05 10° N 10:17:58 77° W 10:23:48 10° S
RESURS DK-1 3.2 10:17:14 10° SW 10:21:12 46° WNW 10:21:51 42° NW
GPS 2-17 Rocket1 4.1 10:19:43 10° WNW 10:22:36 32° NW 10:22:36 32° NW
Cosmos 2322 Rocket 2.4 10:19:29 10° S 10:24:08 50° SE 10:24:08 50° SE
GPS 2-15 Rocket1 3.9 10:20:34 10° WNW 10:24:14 43° NNW 10:24:14 43° NNW
Lacrosse 5 rocket 2.7 10:21:20 10° SSW 10:23:28 29° S 10:23:28 29° S
SWIFT 3.1 10:23:25 10° W 10:26:37 48° WNW 10:26:37 48° WNW
BREEZE-M DEB (TANK) 3.5 10:14:12 10° SSW 10:29:29 67° SE 10:30:06 63° E
IUS-13 SRM-1 3.4 10:30:18 10° WNW 10:33:49 88° NNE 10:51:08 10° ESE
ASTRO E2 4.2 10:31:05 10° WNW 10:33:43 35° W 10:33:43 35° W
S3M 4.4 10:33:31 10° SSW 10:39:36 59° W 10:42:44 29° NNW
USA 238 DEB 3.6 10:33:11 10° NNW 10:40:22 87° ENE 10:47:36 10° SSE
USA 238 3.6 10:33:17 10° NNW 10:40:28 86° ENE 10:47:42 10° SSE
Centaur D AC-29 4.0 11:20:39 10° WSW 11:24:26 24° S 11:33:47 10° SE
ATLAS 3B R/B 4.0 11:26:18 10° NW 11:31:55 32° WSW 11:37:34 10° S
